Flag for Switzerland Weather past 2 weeks in Liestal, Basel-Land, Switzerland

57 °F

Partly cloudy.

Feels Like: 57 °F
Forecast: 45 / 61 °F
Wind: 3 mph from South

Location: Bale-Mulhouse

Current Time: Oct 7, 2015 at 3:09:29 AM

Latest Report: Oct 7, 2015 at 2:30 AM

Visibility: N/A

Pressure: 29.86 "Hg

Humidity: 100%

Dew point: 57 °F

Location of LiestalLocation

Historic Weather in Liestal — Graph


Liestal temperature yesterday

Maximum temperature yesterday: 70 °F (at 11:30 AM)
Minimum temperature yesterday: 57 °F (at 6:00 AM)
Average temperature yesterday: 61 °F

Past Weeks' High & Low Weather Summary

High72 °F (Oct 3, 4:00 PM)100% (Sep 24, 6:00 AM)30.45 "Hg (Sep 24, 6:00 AM)
Low36 °F (Sep 30, 7:30 AM)37% (Sep 28, 3:00 PM)29.68 "Hg (Sep 22, 5:30 PM)
Average55 °F76%30.11 "Hg
* Reported Sep 22 2:00 AM — Oct 7 2:00 AM, Liestal, Weather by CustomWeather, © 2015

Note: Actual official high and low records may vary slightly from our data, if they occured in-between our weather recording intervals... More about our weather records


Liestal weather history for previous 24 hours

Time TempWeatherWind HumidityBarometerVisibility
2:00 AM
Wed, Oct 7
57 °FPassing clouds.6 mph100%29.86 "HgN/A
1:30 AM57 °FOvercast.2 mph100%29.83 "HgN/A
1:00 AM57 °FRain. Fog.3 mph100%29.83 "Hg2 mi
12:30 AM57 °FPartly cloudy.2 mph94%29.83 "HgN/A
12:00 AM57 °FPassing clouds.5 mph94%29.83 "HgN/A
11:30 PM
Tue, Oct 6
57 °FPassing clouds.3 mph94%29.83 "HgN/A
11:00 PM57 °FClear.1 mph94%29.80 "Hg10 mi
10:30 PM59 °FClear.3 mph94%29.80 "Hg10 mi
10:00 PM59 °FClear.6 mph94%29.80 "Hg10 mi
9:30 PM57 °FClear.5 mph94%29.80 "Hg10 mi
9:00 PM57 °FClear.3 mph100%29.80 "Hg10 mi
8:30 PM59 °FClear.5 mph94%29.80 "Hg10 mi
8:00 PM61 °FClear.3 mph88%29.80 "Hg10 mi
7:30 PM61 °FPartly sunny.6 mph88%29.77 "HgN/A
7:00 PM61 °FPartly sunny.6 mph94%29.77 "HgN/A
6:30 PM61 °FPartly sunny.5 mph94%29.77 "HgN/A
6:00 PM63 °FPartly sunny.5 mph88%29.77 "HgN/A
5:30 PM63 °FPartly sunny.5 mph88%29.77 "HgN/A
5:00 PM63 °FPartly sunny.6 mph88%29.77 "HgN/A
4:30 PM63 °FMostly cloudy.7 mph88%29.77 "HgN/A
4:00 PM63 °FMore clouds than sun.6 mph94%29.77 "HgN/A
3:30 PM63 °FMore clouds than sun.6 mph88%29.74 "HgN/A
3:00 PM63 °FLight rain. More clouds than sun.5 mph88%29.77 "Hg5 mi
2:30 PM63 °FLight rain. More clouds than sun.3 mph88%29.77 "Hg4 mi
2:00 PM63 °FLight rain. More clouds than sun.2 mph94%29.77 "Hg4 mi
1:30 PM64 °FLight rain. Fog.6 mph88%29.77 "Hg3 mi
1:00 PM64 °FSprinkles. Partly sunny.8 mph83%29.77 "Hg4 mi
12:30 PM68 °FPartly sunny.7 mph69%29.74 "HgN/A
12:00 PM70 °FBroken clouds.6 mph64%29.74 "HgN/A
11:30 AM70 °FPartly sunny.6 mph69%29.74 "HgN/A
11:00 AM68 °FPassing clouds.5 mph73%29.74 "HgN/A
10:30 AM64 °FSunny.3 mph78%29.71 "Hg10 mi
10:00 AM63 °FPassing clouds.5 mph83%29.71 "HgN/A
9:30 AM63 °FPassing clouds.6 mph83%29.71 "HgN/A
9:00 AM59 °FPassing clouds.5 mph94%29.71 "HgN/A
8:30 AM59 °FPassing clouds.5 mph94%29.74 "HgN/A
8:00 AM59 °FClear.6 mph94%29.74 "Hg10 mi
7:30 AM57 °FPassing clouds.3 mph94%29.74 "HgN/A
7:00 AM57 °FPassing clouds.5 mph94%29.74 "HgN/A
6:30 AM57 °FPassing clouds.5 mph94%29.77 "HgN/A
6:00 AM57 °FClear.6 mph94%29.77 "Hg10 mi
5:30 AM59 °FClear.3 mph94%29.77 "Hg10 mi
5:00 AM59 °FPassing clouds.5 mph94%29.77 "HgN/A
4:30 AM59 °FPassing clouds.6 mph94%29.77 "HgN/A
4:00 AM59 °FPassing clouds.7 mph94%29.77 "HgN/A
3:30 AM59 °FClear.6 mph94%29.80 "Hg10 mi
3:00 AM59 °FPassing clouds.5 mph94%29.80 "HgN/A
Weather by CustomWeather, © 2015

See weather overviewHow to use our weather pages